Regional Weather Roundup
Issued by NWS Newport/Morehead, NC

Current Version | Previous Version | Graphics & Text | Print | Product List | Glossary Off
Versions: 1 2 3 4 5 6 7 8 9 10 11 12 13 14 15 16 17 18 19 20 21 22 23 24 25 26 27 28 29 30 31 32 33 34 35 36 37 38 39 40 41 42 43 44 45 46 47 48 49 50
000 ASUS42 KMHX 221825 RWRMHX WEATHER ROUNDUP FOR EASTERN NORTH CAROLINA NATIONAL WEATHER SERVICE NEWPORT/MOREHEAD CITY NC 200 PM EDT WED MAR 22 2017 NOTE: "FAIR" INDICATES FEW OR NO CLOUDS BELOW 12,000 FEET WITH NO SIGNIFICANT WEATHER AND/OR OBSTRUCTIONS TO VISIBILITY NCZ015>017-031-032-045>047-102-103-221900- NORTH COAST CITY SKY/WX TMP DP RH WIND PRES REMARKS EDENTON MOSUNNY 59 20 22 N20G29 30.15S ELIZABETH CITY SUNNY 53 27 36 N24G33 30.16R KITTY HAWK NOT AVBL MANTEO CLOUDY 49 31 49 N26G35 30.17R $$ NCZ045>047-081-094-103-104-221900- CENTRAL COAST CITY SKY/WX TMP DP RH WIND PRES REMARKS FRISCO MOSUNNY 54 38 54 N15G29 30.12R $$ NCZ095-097-098-100-101-221900- SOUTHERN COAST CITY SKY/WX TMP DP RH WIND PRES REMARKS BEAUFORT CLOUDY 58 38 47 NE17G30 30.11R CEDAR ISLAND NOT AVBL JACKSONVILLE PTSUNNY 62 47 57 N20G30 30.10S PINEY ISLAND PTCLDY N/A N/A N/A NE16G26 30.12R WILMINGTON CLOUDY 62 46 55 N14 30.10R $$ NCZ011>013-027>030-043-044-078>080-089-090>093-098-221900- COASTAL PLAIN CITY SKY/WX TMP DP RH WIND PRES REMARKS AHOSKIE NOT AVBL CLINTON CLOUDY 64 44 47 N10 30.13R ELIZABETHTOWN MOSUNNY 65 44 46 N5 30.11R GOLDSBORO CLOUDY 62 42 47 NE12G20 30.11S GREENVILLE CLOUDY 61 32 33 N17G25 30.15S HAVELOCK CLOUDY 60 44 55 NE18 30.12 KENANSVILLE CLOUDY 63 43 48 N14G21 30.13R KINSTON CLOUDY 61 41 48 NE14G21 30.14R NEW BERN CLOUDY 59 44 57 NE13 30.13R RICHLANDS CLOUDY 60 49 66 N13 30.12R ROCKY MOUNT PTSUNNY 61 33 35 N18 30.15S WASHINGTON CLOUDY 58 36 43 N14G23 30.14R WHITEVILLE PTSUNNY 66 44 45 NE6 30.10S $$ AMZ130-135-150-152-154-156-158-170-250-252-270-ANZ085-086-088-633-658-670-221900- MARINE OBSERVATIONS STATION/POSITION TIME TEMP WIND PRES WAVE SWELL AIR SEA DIR/SP/G HT/PER HT/PER (UTC) (F) (DEG/KT/KT) (MB) (FT/S) (FT/S) CHESAPEAKE LIGHT NOT AVBL 64 E VA BEACH 1750 46 48 360/ 25/ 31 1020.1 8/ 6 2/11 DUCK 1800 45 48 10/ 24/ 31 1020.8 2 E DUCK 1800 47 N/A 7/ 5 2/11 OREGON INLET 1800 47 51 350/ 20/ 30 1020.7 13E OREGON INLT NOT AVBL HATTERAS CG 1800 50 55 360/ 32/ 37 1019.6 DIAMOND BUOY 1750 53 73 10/ 31/ 39 1018.4 10/ 9 CAPE LOOKOUT 1800 55 30/ 24/ 27 1019.4 BEAUFORT LAB 1800 57 53 30/ 11/ 20 1018.7 30 SE NEW RVR IN 1808 58 50/ 21/ 27 1018.9 30 SE NEW RVR IN 1813 64 N/A 6/ 7 2/11 27 SE WRIGHTSVLE 1808 59 64 50/ 16/ 23 1018.9 5 SE WRIGHTSVLE 1808 58 57 40/ 12/ 21 1019.4 225 S CAPE HAT 1750 72 75 300/ 23/ 27 1014.4 10/ 8 2/11 41 SE CHARLESTON 1750 63 66 20/ 21/ 25 1017.5 3/ 4 2/11 $$

USA.gov is the U.S. government's official web portal to all federal, state and local government web resources and services.